Middletown, OH

3:40 PM EDT on September 21, 2017 (GMT -0400)
Hook Field Municipal

Weather History for KMWO - February, 2013

Change the Weather History Date:

Sunday, February 10, 2013

  Actual Average (KFFO) Record (KFFO)
Temperature  
Mean Temperature 40 °F -  
Max Temperature 55 °F 39 °F 55 °F (1999)
Min Temperature 25 °F 22 °F 0 °F (2011)
Degree Days  
Heating Degree Days 25    
Moisture  
Dew Point 34 °F    
Average Humidity 74    
Maximum Humidity 99    
Minimum Humidity 41    
Precipitation  
Precipitation 0.00 in - - ()
Sea Level Pressure  
Sea Level Pressure 30.04 in    
Wind  
Wind Speed 4 mph (South)    
Max Wind Speed 22 mph    
Max Gust Speed 26 mph    
Visibility 10 miles    
Events Rain    
Averages and records for this station are not official NWS values.
T = Trace of Precipitation, MM = Missing Value Source: NWS Daily Summary

Daily Weather History Graph

Daily Weather History Graph

Search for Another Location

Airport or City:

Trip Planner

Search our weather history database for the weather conditions in past years. The results will help you decide how hot, cold, wet, or windy it might be!

Date:

Astronomy

Feb. 10, 2013 Rise Set
Actual Time 7:35 AM EST 6:08 PM EST
Civil Twilight 7:07 AM EST 6:36 PM EST
Nautical Twilight 6:35 AM EST 7:08 PM EST
Astronomical Twilight 6:04 AM EST 7:39 PM EST
Moon 7:25 AM EST (2/10) 6:58 PM EST (2/10)
Length of Visible Light 11h 28m
Length of Day
10h 33m
New Moon, 0% of the Moon is Illuminated
Feb 10
New Moon
Feb 17
First Quarter
Feb 25
Full
Mar 4
Last Quarter
Mar 11
New

Hourly Weather History & Observations

Time (EST) Temp. Windchill Dew Point Humidity Pressure Visibility Wind Dir Wind Speed Gust Speed Precip Events Conditions
12:15 AM 27.9 °F - 27.0 °F 96% 30.25 in 10.0 mi Calm Calm - N/A   Clear
12:35 AM 27.9 °F 24.0 °F 27.3 °F 98% 30.25 in 10.0 mi NNE 3.5 mph - N/A   Clear
12:55 AM 25.3 °F 19.7 °F 24.6 °F 97% 30.24 in 10.0 mi NNE 4.6 mph - N/A   Clear
1:15 AM 27.9 °F - 26.8 °F 96% 30.23 in 10.0 mi Calm Calm - N/A   Clear
1:35 AM 27.9 °F - 26.4 °F 94% 30.22 in 10.0 mi Calm Calm - N/A   Clear
1:55 AM 27.9 °F - 25.5 °F 91% 30.22 in 10.0 mi Calm Calm - N/A   Clear
2:15 AM 27.9 °F - 26.1 °F 93% 30.23 in 10.0 mi Calm Calm - N/A   Clear
2:35 AM 27.9 °F - 26.4 °F 94% 30.22 in 10.0 mi Calm Calm - N/A   Clear
2:55 AM 27.9 °F - 26.6 °F 95% 30.22 in 10.0 mi Calm Calm - N/A   Clear
3:15 AM 27.9 °F - 27.0 °F 96% 30.21 in 10.0 mi Calm Calm - N/A   Clear
3:35 AM 27.9 °F - 26.6 °F 95% 30.21 in 10.0 mi Calm Calm - N/A   Clear
3:55 AM 28.4 °F - 27.0 °F 94% 30.20 in 10.0 mi Calm Calm - N/A   Clear
4:15 AM 29.1 °F - 27.9 °F 95% 30.20 in 10.0 mi Calm Calm - N/A   Clear
4:35 AM 30.0 °F - 28.9 °F 96% 30.19 in 10.0 mi Calm Calm - N/A   Clear
4:55 AM 30.2 °F - 29.1 °F 96% 30.19 in 10.0 mi Calm Calm - N/A   Mostly Cloudy
5:15 AM 30.9 °F - 29.1 °F 93% 30.18 in 10.0 mi Calm Calm - N/A   Overcast
5:35 AM 32.5 °F - 29.5 °F 88% 30.18 in 10.0 mi Calm Calm - N/A   Overcast
5:55 AM 32.5 °F - 29.7 °F 89% 30.18 in 10.0 mi Calm Calm - N/A   Mostly Cloudy
6:15 AM 32.5 °F - 30.0 °F 90% 30.18 in 10.0 mi Calm Calm - N/A   Scattered Clouds
6:35 AM 32.5 °F 28.1 °F 27.7 °F 82% 30.18 in 10.0 mi SSE 4.6 mph - N/A   Scattered Clouds
6:55 AM 35.1 °F 31.0 °F 27.0 °F 72% 30.18 in 10.0 mi SSE 4.6 mph - N/A   Clear
7:15 AM 35.1 °F - 26.4 °F 71% 30.18 in 10.0 mi Calm Calm - N/A   Clear
7:35 AM 35.1 °F 32.2 °F 26.6 °F 71% 30.18 in 10.0 mi South 3.5 mph - N/A   Scattered Clouds
7:55 AM 35.1 °F 32.2 °F 27.0 °F 72% 30.17 in 10.0 mi South 3.5 mph - N/A   Scattered Clouds
8:15 AM 35.1 °F - 26.4 °F 71% 30.17 in 10.0 mi Calm Calm - N/A   Mostly Cloudy
8:35 AM 35.1 °F 32.2 °F 26.6 °F 71% 30.15 in 10.0 mi South 3.5 mph - N/A   Mostly Cloudy
8:55 AM 36.1 °F - 27.0 °F 69% 30.15 in 10.0 mi Calm Calm - N/A   Mostly Cloudy
9:15 AM 37.6 °F - 27.9 °F 68% 30.14 in 10.0 mi Calm Calm - N/A   Overcast
9:35 AM 37.6 °F - 27.5 °F 67% 30.12 in 10.0 mi Calm Calm - N/A   Overcast
9:55 AM 37.8 °F 34.2 °F 27.3 °F 66% 30.14 in 10.0 mi South 4.6 mph - N/A   Overcast
10:15 AM 38.8 °F 34.6 °F 28.2 °F 66% 30.14 in 10.0 mi SSW 5.8 mph - N/A   Overcast
10:35 AM 40.1 °F 38.0 °F 29.3 °F 65% 30.13 in 10.0 mi WSW 3.5 mph - N/A   Overcast
10:55 AM 41.4 °F - 29.3 °F 62% 30.13 in 10.0 mi Calm Calm - N/A   Overcast
11:15 AM 42.8 °F 38.0 °F 29.3 °F 59% 30.11 in 10.0 mi South 8.1 mph - N/A   Overcast
11:35 AM 45.1 °F 41.4 °F 30.4 °F 56% 30.09 in 10.0 mi South 6.9 mph - N/A   Overcast
11:55 AM 47.7 °F - 32.0 °F 55% 30.07 in 10.0 mi South 5.8 mph - N/A   Overcast
12:15 PM 47.7 °F - 31.5 °F 53% 30.05 in 10.0 mi SSE 5.8 mph - N/A   Overcast
12:35 PM 48.2 °F - 30.7 °F 51% 30.03 in 10.0 mi South 8.1 mph - N/A   Overcast
12:55 PM 51.8 °F - 32.5 °F 48% 30.02 in 10.0 mi South 5.8 mph - N/A   Overcast
1:15 PM 52.7 °F - 32.5 °F 46% 30.00 in 10.0 mi SSE 6.9 mph - N/A   Mostly Cloudy
1:35 PM 54.7 °F - 32.0 °F 42% 29.98 in 10.0 mi South 13.8 mph 18.4 mph N/A   Scattered Clouds
1:55 PM 55.4 °F - 32.2 °F 41% 29.95 in 10.0 mi South 11.5 mph 20.7 mph N/A   Scattered Clouds
2:15 PM 54.0 °F - 31.1 °F 42% 29.94 in 10.0 mi SSE 12.7 mph 17.3 mph N/A   Clear
2:35 PM 55.4 °F - 32.0 °F 41% 29.95 in 10.0 mi South 10.4 mph - N/A   Scattered Clouds
2:55 PM 53.6 °F - 31.5 °F 43% 29.96 in 10.0 mi South 9.2 mph - N/A   Mostly Cloudy
3:15 PM 54.1 °F - 32.2 °F 43% 29.95 in 10.0 mi South 6.9 mph - N/A   Mostly Cloudy
3:35 PM 55.4 °F - 32.7 °F 42% 29.93 in 10.0 mi South 6.9 mph - N/A   Scattered Clouds
3:55 PM 55.4 °F - 33.1 °F 43% 29.94 in 10.0 mi South 8.1 mph - N/A   Clear
4:15 PM 55.4 °F - 33.1 °F 43% 29.93 in 10.0 mi South 6.9 mph - N/A   Mostly Cloudy
4:35 PM 55.4 °F - 33.1 °F 43% 29.92 in 10.0 mi South 8.1 mph 16.1 mph N/A   Overcast
4:55 PM 55.4 °F - 33.1 °F 43% 29.91 in 10.0 mi SSE 9.2 mph - N/A   Overcast
5:15 PM 52.7 °F - 35.1 °F 51% 29.87 in 10.0 mi South 17.3 mph 23.0 mph N/A Rain Light Rain
5:35 PM 52.7 °F - 42.1 °F 67% 29.84 in 10.0 mi South 17.3 mph 24.2 mph N/A   Light Drizzle
5:55 PM 52.5 °F - 44.1 °F 73% 29.87 in 10.0 mi South 12.7 mph 24.2 mph N/A Rain Light Rain
6:15 PM 50.2 °F - 43.7 °F 78% 29.89 in 10.0 mi South 13.8 mph 18.4 mph N/A   Light Drizzle
6:35 PM 50.7 °F - 44.4 °F 79% 29.89 in 10.0 mi South 11.5 mph 17.3 mph N/A   Overcast
6:55 PM 50.9 °F - 45.7 °F 82% 29.88 in 10.0 mi South 13.8 mph 18.4 mph N/A   Overcast
7:15 PM 52.7 °F - 46.8 °F 80% 29.86 in 10.0 mi South 10.4 mph 20.7 mph N/A   Overcast
7:35 PM 50.2 °F - 45.0 °F 82% 29.86 in 10.0 mi South 11.5 mph 18.4 mph N/A   Overcast
7:55 PM 50.2 °F - 45.5 °F 84% 29.86 in 10.0 mi South 15.0 mph 21.9 mph N/A   Overcast
8:15 PM 50.2 °F - 45.7 °F 85% 29.85 in 10.0 mi South 16.1 mph 24.2 mph N/A   Overcast
8:35 PM 50.2 °F - 45.9 °F 85% 29.84 in 10.0 mi South 21.9 mph 26.5 mph N/A   Overcast
8:55 PM 50.2 °F - 46.4 °F 87% 29.84 in 10.0 mi South 17.3 mph 23.0 mph N/A   Overcast
9:15 PM 50.2 °F - 46.4 °F 87% 29.85 in 10.0 mi South 12.7 mph 21.9 mph N/A   Overcast
9:35 PM 50.2 °F - 46.4 °F 87% 29.85 in 10.0 mi South 15.0 mph 18.4 mph N/A   Overcast
9:55 PM 50.2 °F - 46.6 °F 87% 29.84 in 10.0 mi South 15.0 mph 21.9 mph N/A   Overcast
10:15 PM 47.8 °F - 45.1 °F 90% 29.83 in 7.0 mi South 15.0 mph 23.0 mph N/A   Overcast
10:35 PM 47.7 °F - 46.4 °F 95% 29.82 in 7.0 mi South 13.8 mph 20.7 mph N/A   Overcast
10:55 PM 47.7 °F - 46.4 °F 95% 29.82 in 10.0 mi South 11.5 mph - N/A   Overcast
11:15 PM 47.7 °F - 45.9 °F 93% 29.81 in 10.0 mi SSW 12.7 mph 18.4 mph N/A   Overcast
11:35 PM 47.7 °F - 45.9 °F 93% 29.82 in 10.0 mi SSW 11.5 mph - N/A   Overcast
11:55 PM 47.7 °F - 47.3 °F 99% 29.81 in 5.0 mi SSW 12.7 mph - N/A   Overcast